[[{"header":{"parameterUnit":"m.s-1","parameterCategory":2,"la1":30.2991,"la2":30.254,"lo1":-89.0895,"lo2":-89.0444,"dy":0.0017,"dx":0.0017,"nx":28,"ny":28,"refTime":"2023-04-23T21:00:00:Z","depth":"0","parameterNumber":2,"parameterNumberName":"U-component_of_CURRENTS"},"data":[0,0,0,0,0,0,0,0,0,0,0,0,0,0,0,0,0,0,0,0,0,0,0,0,0,0,0,0,0,0,0,0,0,0,0,0,0,0,0,0,0,0,0,0,0,0,0,0,0,0,0,0,0,0,0,0,0,0,-0.2809,-0.2811,0,-0.3062,-0.3065,-0.3069,-0.3068,-0.3064,-0.3059,-0.3055,-0.3192,-0.3199,-0.3206,0,0,0,0,0,0,0,0,0,0,0,0,0,-0.2624,-0.2627,-0.2809,-0.2811,-0.2813,-0.3061,-0.3066,-0.307,-0.3069,-0.3063,-0.3058,-0.3053,-0.3189,-0.3198,-0.3207,0,0,0,0,0,0,0,0,0,0,0,0,0,-0.2782,-0.2627,-0.2808,-0.2835,-0.2839,-0.306,-0.3066,-0.3071,-0.307,-0.3063,-0.3057,-0.3051,-0.3186,-0.3197,-0.3208,-0.3406,0,0,-0.3243,-0.3248,0,0,0,0,0,0,0,0,-0.2773,-0.279,-0.2829,-0.2833,-0.2838,-0.3018,-0.305,-0.3174,-0.3071,-0.2993,-0.3055,-0.3048,-0.3121,-0.3137,-0.3215,-0.3412,-0.3418,-0.3244,-0.3251,-0.3256,-0.3259,0,0,0,0,0,0,0,-0.2762,-0.2781,-0.2919,-0.2831,-0.2837,-0.2937,-0.295,-0.3077,-0.3095,-0.2999,-0.2997,-0.3012,-0.3123,-0.3204,-0.3217,-0.342,-0.3244,-0.3254,-0.3261,-0.3265,-0.3336,-0.3331,0,0,0,0,0,0,-0.2703,-0.277,-0.2911,-0.2925,-0.2778,-0.2943,-0.2959,-0.2975,-0.3096,-0.3107,-0.3017,-0.301,-0.3188,-0.3204,-0.3222,-0.3231,-0.3256,-0.3266,-0.3273,-0.334,-0.3335,-0.3329,0,0,0,0,0,0,-0.2698,-0.2713,-0.29,-0.2845,-0.2874,-0.2949,-0.297,-0.2983,-0.3035,-0.3109,-0.3117,-0.3048,-0.3184,-0.3206,-0.3284,-0.3243,-0.3271,-0.3282,-0.3346,-0.3339,-0.3332,-0.3397,0,0,0,0,0,0,-0.2692,-0.271,-0.2713,-0.2841,-0.2874,-0.3016,-0.2975,-0.2992,-0.305,-0.3044,-0.3141,-0.3148,-0.318,-0.3267,-0.3296,-0.326,-0.3291,-0.3353,-0.3343,-0.3334,-0.3401,-0.3393,-0.3386,0,0,0,0,0,-0.2685,-0.2705,-0.2712,-0.2729,-0.2872,-0.3018,-0.3048,-0.3087,-0.3057,-0.3107,-0.3133,-0.3144,-0.322,-0.3279,-0.3312,-0.3277,-0.3357,-0.3346,-0.3335,-0.3405,-0.3394,-0.3386,0,0,0,0,0,0,-0.2627,-0.2711,-0.2719,-0.2762,-0.2872,-0.3012,-0.305,-0.3096,-0.3174,-0.314,-0.3193,-0.3207,-0.3216,-0.324,-0.33,-0.3238,-0.3248,-0.3244,-0.3288,-0.328,-0.3272,-0.3228,-0.33,0,0,0,0,0,-0.2618,-0.2646,-0.2761,-0.2797,-0.2838,-0.2952,-0.3013,-0.3054,-0.3134,-0.3162,-0.3228,-0.3225,-0.3212,-0.3243,-0.3253,-0.3334,-0.3298,-0.3278,-0.3271,-0.3266,-0.3233,-0.3171,-0.3158,-0.3293,-0.3293,-0.3293,0,0,-0.2604,-0.2653,-0.2668,-0.2787,-0.2861,-0.2925,-0.2974,-0.3065,-0.3103,-0.3169,-0.3232,-0.3237,-0.3215,-0.3233,-0.3233,-0.3256,-0.3204,-0.3251,-0.3249,-0.3218,-0.3159,-0.3147,-0.3136,-0.3285,-0.3286,-0.3288,0,0,-0.2585,-0.2634,-0.2644,-0.2724,-0.2829,-0.2916,-0.2934,-0.3081,-0.3119,-0.3229,-0.3184,-0.3176,-0.3267,-0.3211,-0.3191,-0.3155,-0.3153,-0.3116,-0.3098,-0.3041,-0.3032,-0.3023,-0.2979,-0.2966,-0.3133,-0.3133,-0.3133,0,-0.2558,-0.2582,-0.2682,-0.271,-0.2749,-0.2892,-0.2919,-0.3017,-0.3169,-0.3187,-0.322,-0.3221,-0.3231,-0.3165,-0.3113,-0.3145,-0.3117,-0.3171,-0.3042,-0.3032,-0.3022,-0.2978,-0.2963,-0.3135,-0.3134,-0.3134,-0.3134,0,-0.2543,-0.2561,-0.258,-0.264,-0.2717,-0.2781,-0.2899,-0.2984,-0.3056,-0.3131,-0.3136,-0.318,-0.3155,-0.3131,-0.3135,-0.3028,-0.3032,-0.3042,-0.3098,-0.3015,-0.2971,-0.2955,-0.3137,-0.3137,-0.3136,-0.3136,0,0,-0.2481,-0.2548,-0.2551,-0.2568,-0.2677,-0.2762,-0.2804,-0.2903,-0.2916,-0.3053,-0.3043,-0.3036,-0.3066,-0.3031,-0.3027,-0.2989,-0.2914,-0.2992,-0.2988,-0.3004,-0.2797,-0.2731,-0.2707,-0.2929,-0.2926,-0.2924,-0.2805,0,-0.2434,-0.2454,-0.2497,-0.2537,-0.2568,-0.2671,-0.271,-0.2806,-0.2894,-0.2942,-0.297,-0.2974,-0.3026,-0.3015,-0.2983,-0.2916,-0.2868,-0.2945,-0.2821,-0.2816,-0.2816,-0.2683,-0.2563,-0.244,-0.2789,-0.2786,-0.2784,0,-0.2395,-0.2419,-0.2418,-0.2486,-0.2504,-0.2542,-0.2618,-0.2683,-0.275,-0.2805,-0.2829,-0.2872,-0.2832,-0.2885,-0.2792,-0.2849,-0.2799,-0.2771,-0.2767,-0.2662,-0.2717,-0.2564,-0.2396,-0.2381,-0.2758,-0.276,-0.2762,0,-0.233,-0.2374,-0.2369,-0.2392,-0.248,-0.2485,-0.2549,-0.2624,-0.2683,-0.2712,-0.2748,-0.2734,-0.2751,-0.2689,-0.2693,-0.2723,-0.2585,-0.2621,-0.2514,-0.2512,-0.2352,-0.2339,-0.2192,-0.2502,-0.2502,-0.2502,-0.2502,0,-0.2272,-0.2281,-0.2342,-0.2347,-0.2381,-0.2438,-0.247,-0.2535,-0.2578,-0.2626,-0.2679,-0.2703,-0.2705,-0.2678,-0.2633,-0.2531,-0.2547,-0.2454,-0.245,-0.2368,-0.2358,-0.2293,-0.2334,-0.2498,-0.2499,-0.25,-0.25,0,-0.2202,-0.223,-0.2258,-0.232,-0.2351,-0.2384,-0.248,-0.2503,-0.2552,-0.2599,-0.2615,-0.2672,-0.2618,-0.261,-0.2501,-0.2468,-0.2304,-0.2318,-0.2233,-0.2218,-0.2072,-0.212,-0.1932,-0.1882,-0.2131,-0.2128,-0.2126,0,-0.2162,-0.2155,-0.2246,-0.2279,-0.2304,-0.2364,-0.2405,-0.2491,-0.2524,-0.2595,-0.2607,-0.2588,-0.2544,-0.2385,-0.2275,-0.2131,-0.2184,-0.1985,-0.1986,-0.1989,-0.2042,-0.2094,-0.2071,-0.1812,-0.1807,-0.1803,-0.18,0,-0.2085,-0.2114,-0.2144,-0.2203,-0.2255,-0.2311,-0.2372,-0.2402,-0.2487,-0.2505,-0.2482,-0.2427,-0.2314,-0.2104,-0.1969,-0.189,-0.1921,-0.1899,-0.1903,-0.1745,-0.1784,-0.176,-0.2003,-0.1766,-0.1769,-0.1772,-0.1774,-0.1775,-0.2027,-0.2035,-0.2058,-0.2108,-0.2164,-0.2164,-0.2167,-0.2224,-0.2222,-0.2197,-0.2262,-0.2124,-0.2003,-0.1746,-0.1681,-0.1539,-0.1626,-0.149,-0.1541,-0.1588,-0.1537,-0.1705,-0.1475,-0.1476,-0.1478,-0.1479,-0.148,0,-0.1923,-0.1922,-0.1959,-0.1978,-0.1949,-0.2024,-0.2068,-0.2023,-0.1958,-0.1954,-0.1877,-0.1695,-0.1502,-0.1444,-0.129,-0.1212,-0.1209,-0.1214,-0.1254,-0.1242,-0.1357,-0.1342,-0.107,-0.107,-0.107,-0.107,-0.107,-0.107,-0.1859,-0.182,-0.1822,-0.1714,-0.1724,-0.1638,-0.1622,-0.1607,-0.1579,-0.1415,-0.1325,-0.1236,-0.1233,-0.1258,-0.1148,-0.109,-0.1099,-0.1046,-0.1118,-0.1219,-0.125,-0.1279,-0.1271,-0.0988,-0.0988,-0.0932,-0.0931,-0.0931]},{"header":{"parameterUnit":"m.s-1","parameterCategory":2,"la1":30.2991,"la2":30.254,"lo1":-89.0895,"lo2":-89.0444,"dy":0.0017,"dx":0.0017,"nx":28,"ny":28,"refTime":"2023-04-23T21:00:00:Z","depth":"0","parameterNumber":3,"parameterNumberName":"V-component_of_CURRENTS"},"data":[0,0,0,0,0,0,0,0,0,0,0,0,0,0,0,0,0,0,0,0,0,0,0,0,0,0,0,0,0,0,0,0,0,0,0,0,0,0,0,0,0,0,0,0,0,0,0,0,0,0,0,0,0,0,0,0,0,0,-0.0384,-0.0383,0,-0.0247,-0.0245,-0.0242,-0.0173,-0.0173,-0.0174,-0.0175,0.0276,0.0288,0.03,0,0,0,0,0,0,0,0,0,0,0,0,0,-0.0423,-0.0423,-0.0384,-0.0383,-0.0382,-0.0247,-0.0244,-0.0242,-0.0172,-0.0173,-0.0174,-0.0175,0.0271,0.0286,0.0302,0,0,0,0,0,0,0,0,0,0,0,0,0,-0.035,-0.0423,-0.0384,-0.0338,-0.0333,-0.0248,-0.0244,-0.0241,-0.0172,-0.0173,-0.0174,-0.0175,0.0266,0.0285,0.0304,0.0443,0,0,0.0362,0.037,0,0,0,0,0,0,0,0,-0.0355,-0.0348,-0.0345,-0.0341,-0.0335,-0.0235,-0.0094,0.0,-0.0172,-0.0224,-0.0175,-0.0176,0.0129,0.0159,0.0195,0.0464,0.0483,0.0363,0.0375,0.0383,0.0388,0,0,0,0,0,0,0,-0.036,-0.0352,-0.0321,-0.0344,-0.0338,-0.0268,-0.026,-0.0075,-0.003,-0.022,-0.0216,-0.0214,0.0135,0.0176,0.0207,0.049,0.0363,0.038,0.0391,0.0399,0.0941,0.0944,0,0,0,0,0,0,-0.0401,-0.0358,-0.0325,-0.0318,-0.0357,-0.0268,-0.0258,-0.0259,-0.0039,-0.0012,-0.0214,-0.0212,0.0144,0.0185,0.0224,0.0402,0.0383,0.0401,0.0412,0.0938,0.0941,0.0945,0,0,0,0,0,0,-0.0403,-0.04,-0.0331,-0.0341,-0.0329,-0.0269,-0.0269,-0.0256,-0.0235,-0.004,-0.0005,-0.021,0.0145,0.0197,0.0421,0.042,0.0409,0.0427,0.0934,0.0939,0.0943,0.0761,0,0,0,0,0,0,-0.0404,-0.0401,-0.0408,-0.0344,-0.033,-0.0281,-0.0268,-0.0253,-0.0235,-0.0231,-0.0023,0.0018,0.0148,0.0392,0.0439,0.0446,0.0441,0.093,0.0936,0.0942,0.0763,0.0759,0.0755,0,0,0,0,0,-0.0406,-0.0425,-0.0409,-0.0405,-0.0345,-0.0281,-0.0265,-0.022,-0.0235,-0.0208,-0.0047,0.001,0.0459,0.0411,0.0466,0.0478,0.0928,0.0935,0.0941,0.0765,0.076,0.0755,0,0,0,0,0,0,-0.0447,-0.0418,-0.04,-0.0409,-0.0349,-0.0273,-0.0262,-0.0236,-0.0099,-0.01,0.0081,0.0138,0.0321,0.045,0.0391,0.0656,0.0691,0.0709,0.0538,0.0535,0.0531,0.0438,0.0457,0,0,0,0,0,-0.0461,-0.0466,-0.0409,-0.0412,-0.0396,-0.0333,-0.0307,-0.028,-0.0165,-0.0114,0.0057,0.0233,0.0397,0.0501,0.068,0.0849,0.0854,0.0889,0.0884,0.0879,0.0846,0.085,0.0838,0.0967,0.0967,0.0966,0,0,-0.0478,-0.0464,-0.0466,-0.042,-0.0381,-0.0348,-0.0318,-0.0297,-0.0244,-0.0073,0.0089,0.0237,0.0443,0.0619,0.071,0.0724,0.0849,0.0887,0.088,0.085,0.0855,0.0841,0.0828,0.0971,0.097,0.097,0,0,-0.0518,-0.0505,-0.052,-0.0479,-0.044,-0.0383,-0.0388,-0.0292,-0.0226,-0.0049,0.0061,0.0202,0.0511,0.0617,0.0713,0.0803,0.0824,0.0869,0.0776,0.0779,0.0765,0.0753,0.0717,0.0703,0.0866,0.0865,0.0865,0,-0.054,-0.0553,-0.0507,-0.0506,-0.0489,-0.0409,-0.0409,-0.0313,-0.0139,-0.009,-0.0008,0.0321,0.0493,0.0623,0.066,0.078,0.0774,0.076,0.0759,0.0748,0.0738,0.0705,0.0691,0.0857,0.0858,0.0859,0.086,0,-0.058,-0.0589,-0.0598,-0.0565,-0.0525,-0.0515,-0.0404,-0.0328,-0.0233,-0.0139,0.0029,0.0261,0.0424,0.0509,0.063,0.0654,0.0666,0.0736,0.0733,0.0711,0.0681,0.067,0.0846,0.0849,0.0851,0.0853,0,0,-0.0632,-0.063,-0.0631,-0.0646,-0.0569,-0.055,-0.0465,-0.0375,-0.036,-0.0149,-0.0113,0.0172,0.0231,0.0343,0.0481,0.0511,0.0451,0.0586,0.059,0.0479,0.0412,0.0554,0.0556,0.0503,0.0501,0.0499,0.0403,0,-0.0675,-0.0713,-0.0683,-0.0695,-0.0707,-0.0629,-0.0556,-0.047,-0.0348,-0.0264,-0.0099,0.0029,0.0189,0.0242,0.0293,0.0427,0.042,0.0468,0.0512,0.0512,0.0583,0.0549,0.0603,0.0536,0.0393,0.0391,0.039,0,-0.0718,-0.0743,-0.0783,-0.0796,-0.0795,-0.0775,-0.0725,-0.0651,-0.053,-0.0445,-0.0346,-0.0204,-0.0104,0.0028,0.0156,0.0174,0.0261,0.0352,0.0351,0.0534,0.0636,0.0552,0.0522,0.0633,0.0374,0.0375,0.0376,0,-0.0785,-0.0814,-0.086,-0.0859,-0.0839,-0.0849,-0.082,-0.0719,-0.0676,-0.059,-0.056,-0.0425,-0.0326,-0.0229,0.004,0.0054,0.0166,0.0204,0.0391,0.04,0.0483,0.0506,0.0508,0.0228,0.0229,0.0229,0.0229,0,-0.0844,-0.0883,-0.0909,-0.0935,-0.1007,-0.0947,-0.0984,-0.0934,-0.0862,-0.0799,-0.0676,-0.0572,-0.0379,-0.0233,-0.0075,0.0155,0.0072,0.0343,0.0387,0.043,0.0448,0.0586,0.0636,0.0225,0.0226,0.0227,0.0227,0,-0.0908,-0.0919,-0.0993,-0.1021,-0.1048,-0.1097,-0.1113,-0.1099,-0.1032,-0.0961,-0.0939,-0.0719,-0.0496,-0.0294,-0.0089,0.0056,0.0311,0.0323,0.0358,0.0412,0.0667,0.0707,0.0757,0.0841,0.0415,0.0418,0.0421,0,-0.0944,-0.0986,-0.1084,-0.1142,-0.1168,-0.1234,-0.1246,-0.12,-0.1146,-0.0976,-0.0913,-0.0706,-0.0436,-0.0123,0.0133,0.0344,0.0463,0.0499,0.0558,0.0669,0.0742,0.0764,0.0832,0.0563,0.0566,0.0569,0.0571,0,-0.1014,-0.1048,-0.111,-0.1229,-0.1288,-0.1343,-0.1335,-0.1324,-0.118,-0.1062,-0.0782,-0.0575,-0.0226,0.0123,0.0395,0.053,0.0592,0.0567,0.0661,0.084,0.0878,0.0987,0.0608,0.0597,0.0594,0.0592,0.0591,0.059,-0.106,-0.113,-0.1199,-0.1305,-0.1361,-0.135,-0.1337,-0.1206,-0.1068,-0.0725,-0.0625,-0.0206,0.0092,0.0526,0.0672,0.0912,0.0855,0.0965,0.0984,0.0981,0.1135,0.0819,0.0906,0.0906,0.0905,0.0904,0.0904,0,-0.1098,-0.1158,-0.1257,-0.1344,-0.1354,-0.138,-0.1301,-0.1147,-0.0853,-0.0504,-0.0175,0.0267,0.0615,0.0868,0.1151,0.1292,0.1302,0.1345,0.1341,0.1379,0.1068,0.1155,0.1328,0.1328,0.1328,0.1328,0.1328,0.1328,-0.112,-0.1201,-0.1241,-0.1277,-0.1314,-0.1245,-0.1161,-0.0837,-0.0537,0.0064,0.0452,0.0704,0.0939,0.1293,0.1562,0.1588,0.1695,0.1697,0.1754,0.1504,0.1468,0.1434,0.1528,0.1776,0.1777,0.2059,0.2062,0.2064]}],[{"header":{"parameterUnit":"m.s-1","parameterCategory":2,"la1":30.2991,"la2":30.254,"lo1":-89.0895,"lo2":-89.0444,"dy":0.0017,"dx":0.0017,"nx":28,"ny":28,"refTime":"2023-04-23T21:00:00:Z","depth":"2","parameterNumber":2,"parameterNumberName":"U-component_of_CURRENTS"},"data":[0,0,0,0,0,0,0,0,0,0,0,0,0,0,0,0,0,0,0,0,0,0,0,0,0,0,0,0,0,0,0,0,0,0,0,0,0,0,0,0,0,0,0,0,0,0,0,0,0,0,0,0,0,0,0,0,0,0,-0.252,-0.252,0,-0.2585,-0.2585,-0.2586,-0.2564,-0.2563,-0.2562,-0.2561,-0.2676,-0.268,-0.2684,0,0,0,0,0,0,0,0,0,0,0,0,0,-0.2384,-0.2386,-0.2519,-0.2521,-0.2522,-0.2585,-0.2585,-0.2586,-0.2565,-0.2563,-0.2562,-0.256,-0.2675,-0.268,-0.2685,0,0,0,0,0,0,0,0,0,0,0,0,0,-0.2442,-0.2387,-0.2519,-0.2521,-0.2522,-0.2585,-0.2585,-0.2586,-0.2565,-0.2563,-0.2561,-0.256,-0.2673,-0.2679,-0.2685,-0.2757,0,0,-0.2704,-0.2707,0,0,0,0,0,0,0,0,-0.2439,-0.2447,-0.2519,-0.2521,-0.2522,-0.2567,-0.258,-0.2647,-0.2565,-0.2545,-0.2561,-0.2559,-0.2648,-0.2656,-0.2667,-0.2763,-0.2768,-0.2705,-0.2708,-0.2711,-0.2713,0,0,0,0,0,0,0,-0.2435,-0.2444,-0.2542,-0.2521,-0.2523,-0.2521,-0.2527,-0.2592,-0.2604,-0.2547,-0.2546,-0.2559,-0.2648,-0.2661,-0.267,-0.2769,-0.2704,-0.271,-0.2714,-0.2716,-0.2905,-0.2906,0,0,0,0,0,0,-0.2435,-0.2441,-0.254,-0.2544,-0.2479,-0.2525,-0.2532,-0.2552,-0.2602,-0.2608,-0.256,-0.2558,-0.2651,-0.2662,-0.2674,-0.272,-0.2711,-0.2717,-0.272,-0.2904,-0.2905,-0.2907,0,0,0,0,0,0,-0.2432,-0.2444,-0.2538,-0.2496,-0.2508,-0.253,-0.2552,-0.2554,-0.2566,-0.2612,-0.2618,-0.257,-0.265,-0.2665,-0.2719,-0.2726,-0.272,-0.2725,-0.2902,-0.2904,-0.2906,-0.2841,0,0,0,0,0,0,-0.2428,-0.2443,-0.2448,-0.2496,-0.251,-0.2555,-0.2555,-0.2557,-0.2579,-0.2576,-0.2624,-0.2632,-0.265,-0.2709,-0.2725,-0.2734,-0.273,-0.29,-0.2903,-0.2905,-0.2841,-0.284,-0.284,0,0,0,0,0,-0.2423,-0.2443,-0.2448,-0.246,-0.2521,-0.2556,-0.2562,-0.2569,-0.2581,-0.2576,-0.2614,-0.2631,-0.2736,-0.2716,-0.2734,-0.2745,-0.2899,-0.2902,-0.2905,-0.2842,-0.2841,-0.284,0,0,0,0,0,0,-0.2382,-0.2445,-0.2451,-0.2486,-0.2509,-0.2552,-0.2561,-0.2579,-0.2608,-0.2614,-0.2652,-0.2663,-0.2718,-0.2751,-0.2727,-0.281,-0.2821,-0.2827,-0.2767,-0.2766,-0.2765,-0.2667,-0.2735,0,0,0,0,0,-0.238,-0.2407,-0.2457,-0.2477,-0.2498,-0.2534,-0.255,-0.2562,-0.2601,-0.2611,-0.2637,-0.2687,-0.2749,-0.2768,-0.2823,-0.287,-0.2838,-0.2891,-0.289,-0.2888,-0.2824,-0.277,-0.2756,-0.2916,-0.2916,-0.2916,0,0,-0.2368,-0.2406,-0.2419,-0.2469,-0.2495,-0.2508,-0.2538,-0.257,-0.2561,-0.2626,-0.2623,-0.2695,-0.2767,-0.2809,-0.2836,-0.283,-0.2841,-0.2892,-0.289,-0.2824,-0.2771,-0.2755,-0.274,-0.2918,-0.2918,-0.2917,0,0,-0.235,-0.2396,-0.2405,-0.243,-0.2473,-0.2498,-0.2509,-0.2551,-0.2547,-0.2587,-0.2628,-0.2689,-0.2773,-0.28,-0.2839,-0.2874,-0.285,-0.2909,-0.2807,-0.2758,-0.2741,-0.2727,-0.271,-0.2694,-0.2892,-0.2892,-0.2892,0,-0.2325,-0.2349,-0.2407,-0.2419,-0.2436,-0.2491,-0.2494,-0.2505,-0.2545,-0.2539,-0.2576,-0.2663,-0.2763,-0.2773,-0.2796,-0.2867,-0.2823,-0.2802,-0.2747,-0.2732,-0.2718,-0.2704,-0.2687,-0.2889,-0.289,-0.289,-0.289,0,-0.2306,-0.2325,-0.2338,-0.2366,-0.239,-0.241,-0.2443,-0.2451,-0.2484,-0.2485,-0.2501,-0.2593,-0.2637,-0.2699,-0.2771,-0.2725,-0.2726,-0.276,-0.2729,-0.2696,-0.2687,-0.267,-0.2885,-0.2886,-0.2887,-0.2888,0,0,-0.2252,-0.231,-0.2311,-0.2321,-0.237,-0.2394,-0.2387,-0.239,-0.2393,-0.239,-0.2372,-0.2468,-0.2491,-0.2532,-0.2607,-0.2562,-0.251,-0.2601,-0.26,-0.2546,-0.2383,-0.2338,-0.2316,-0.25,-0.2495,-0.2492,-0.2431,0,-0.2209,-0.2222,-0.2259,-0.2264,-0.2282,-0.233,-0.2324,-0.2334,-0.2361,-0.2358,-0.2369,-0.2412,-0.2429,-0.2494,-0.2429,-0.2532,-0.2452,-0.2522,-0.2454,-0.2452,-0.2382,-0.229,-0.214,-0.2065,-0.2415,-0.2412,-0.241,0,-0.2168,-0.2189,-0.2187,-0.2236,-0.2249,-0.2252,-0.2284,-0.2286,-0.2284,-0.231,-0.2267,-0.2304,-0.2279,-0.2323,-0.2253,-0.2282,-0.2293,-0.2316,-0.2316,-0.2259,-0.2371,-0.2151,-0.2021,-0.2382,-0.2384,-0.2386,-0.2388,0,-0.2111,-0.2142,-0.214,-0.2154,-0.2208,-0.221,-0.2237,-0.2257,-0.227,-0.2272,-0.2306,-0.2218,-0.2264,-0.2169,-0.2229,-0.2237,-0.2144,-0.2199,-0.2119,-0.212,-0.1968,-0.196,-0.2063,-0.2063,-0.2063,-0.2063,-0.2063,0,-0.2059,-0.2061,-0.2116,-0.2118,-0.2127,-0.2181,-0.2186,-0.2216,-0.2249,-0.2253,-0.2263,-0.2245,-0.2219,-0.2187,-0.2169,-0.208,-0.2089,-0.2036,-0.2063,-0.1953,-0.1945,-0.2201,-0.2218,-0.2061,-0.2061,-0.2062,-0.2062,0,-0.1994,-0.2024,-0.2037,-0.2087,-0.2099,-0.2112,-0.2169,-0.2189,-0.2232,-0.2248,-0.2255,-0.2273,-0.2217,-0.2172,-0.212,-0.2057,-0.1985,-0.1948,-0.1837,-0.1847,-0.2004,-0.202,-0.1818,-0.1815,-0.1813,-0.1811,-0.1809,0,-0.196,-0.1957,-0.2008,-0.2019,-0.2037,-0.2063,-0.209,-0.2159,-0.2188,-0.2236,-0.2243,-0.2226,-0.215,-0.204,-0.1937,-0.1818,-0.1907,-0.1648,-0.1622,-0.1912,-0.1961,-0.198,-0.1998,-0.1432,-0.1427,-0.1424,-0.142,0,-0.1895,-0.1914,-0.1932,-0.1948,-0.1976,-0.1998,-0.2041,-0.2054,-0.2129,-0.2133,-0.2102,-0.2045,-0.1965,-0.176,-0.1665,-0.1584,-0.1651,-0.1565,-0.1853,-0.1526,-0.1544,-0.1595,-0.1625,-0.1386,-0.139,-0.1392,-0.1394,-0.1395,-0.1842,-0.1841,-0.1854,-0.1857,-0.1892,-0.1882,-0.1833,-0.1886,-0.1862,-0.1804,-0.1879,-0.1728,-0.1721,-0.1433,-0.135,-0.129,-0.1398,-0.134,-0.1353,-0.137,-0.1344,-0.1356,-0.1161,-0.1163,-0.1165,-0.1166,-0.1168,0,-0.1751,-0.1749,-0.1758,-0.174,-0.1712,-0.1762,-0.1759,-0.1662,-0.1552,-0.1554,-0.1465,-0.1266,-0.1141,-0.1139,-0.0977,-0.0958,-0.0958,-0.0934,-0.0936,-0.097,-0.1,-0.0957,-0.067,-0.0669,-0.0668,-0.0667,0,0,-0.1697,-0.1654,-0.1645,-0.1533,-0.152,-0.1398,-0.1343,-0.1224,-0.1161,-0.1001,-0.0923,-0.0987,-0.1049,-0.0834,-0.0811,-0.0707,-0.0825,-0.0667,-0.1061,-0.1092,-0.112,-0.1225,-0.1195,0,0,0,0,0]},{"header":{"parameterUnit":"m.s-1","parameterCategory":2,"la1":30.2991,"la2":30.254,"lo1":-89.0895,"lo2":-89.0444,"dy":0.0017,"dx":0.0017,"nx":28,"ny":28,"refTime":"2023-04-23T21:00:00:Z","depth":"2","parameterNumber":3,"parameterNumberName":"V-component_of_CURRENTS"},"data":[0,0,0,0,0,0,0,0,0,0,0,0,0,0,0,0,0,0,0,0,0,0,0,0,0,0,0,0,0,0,0,0,0,0,0,0,0,0,0,0,0,0,0,0,0,0,0,0,0,0,0,0,0,0,0,0,0,0,-0.0416,-0.0415,0,-0.0381,-0.0381,-0.0381,-0.0324,-0.0323,-0.0322,-0.0321,-0.0168,-0.0165,-0.0163,0,0,0,0,0,0,0,0,0,0,0,0,0,-0.0429,-0.0429,-0.0416,-0.0415,-0.0415,-0.0381,-0.0381,-0.038,-0.0325,-0.0323,-0.0322,-0.0321,-0.0169,-0.0166,-0.0162,0,0,0,0,0,0,0,0,0,0,0,0,0,-0.0413,-0.0429,-0.0416,-0.0382,-0.0379,-0.0381,-0.0381,-0.038,-0.0325,-0.0323,-0.0322,-0.032,-0.0171,-0.0166,-0.0162,-0.0167,0,0,-0.0148,-0.0146,0,0,0,0,0,0,0,0,-0.0414,-0.0412,-0.0388,-0.0384,-0.0381,-0.0355,-0.033,-0.0303,-0.0325,-0.0346,-0.0321,-0.0319,-0.022,-0.0212,-0.0212,-0.016,-0.0153,-0.0147,-0.0145,-0.0143,-0.0141,0,0,0,0,0,0,0,-0.0415,-0.0414,-0.0403,-0.0387,-0.0383,-0.0367,-0.0363,-0.0325,-0.0292,-0.0344,-0.034,-0.0335,-0.0217,-0.0217,-0.0207,-0.0151,-0.0148,-0.0144,-0.0141,-0.0139,-0.0103,-0.0105,0,0,0,0,0,0,-0.042,-0.0415,-0.0404,-0.0402,-0.0392,-0.0368,-0.0364,-0.0365,-0.0294,-0.0283,-0.0337,-0.0333,-0.0225,-0.0213,-0.0202,-0.0181,-0.0143,-0.0139,-0.0136,-0.0102,-0.0104,-0.0106,0,0,0,0,0,0,-0.042,-0.0419,-0.0405,-0.0406,-0.0403,-0.037,-0.0372,-0.0366,-0.0362,-0.029,-0.0275,-0.0339,-0.0223,-0.0208,-0.0165,-0.0175,-0.0136,-0.0132,-0.0099,-0.0102,-0.0105,-0.0154,0,0,0,0,0,0,-0.0421,-0.042,-0.0427,-0.0407,-0.0403,-0.0413,-0.0373,-0.0366,-0.0361,-0.0355,-0.0287,-0.0271,-0.0221,-0.0172,-0.0161,-0.0168,-0.0129,-0.0097,-0.0101,-0.0104,-0.015,-0.0158,-0.0164,0,0,0,0,0,-0.0422,-0.0444,-0.0428,-0.0426,-0.0413,-0.0414,-0.0411,-0.0382,-0.0363,-0.0371,-0.0318,-0.0273,-0.0186,-0.017,-0.0155,-0.0162,-0.0096,-0.01,-0.0104,-0.0147,-0.0156,-0.0164,0,0,0,0,0,0,-0.0459,-0.0439,-0.0421,-0.0437,-0.0426,-0.0404,-0.041,-0.0392,-0.0362,-0.0352,-0.0281,-0.0263,-0.0237,-0.0202,-0.0186,-0.0169,-0.014,-0.0141,-0.0178,-0.0186,-0.0193,-0.0171,-0.0125,0,0,0,0,0,-0.047,-0.0477,-0.0455,-0.0469,-0.0464,-0.0439,-0.0437,-0.042,-0.039,-0.0376,-0.0329,-0.0284,-0.0248,-0.0216,-0.0187,-0.0164,-0.0112,-0.0168,-0.0175,-0.0181,-0.0159,-0.008,-0.0076,-0.0119,-0.0119,-0.0119,0,0,-0.0487,-0.0478,-0.0482,-0.0476,-0.0464,-0.0461,-0.0434,-0.044,-0.0431,-0.0363,-0.034,-0.0309,-0.0253,-0.0231,-0.0217,-0.0193,-0.0155,-0.0186,-0.0191,-0.0165,-0.0084,-0.0079,-0.0074,-0.0121,-0.0121,-0.012,0,0,-0.0529,-0.0519,-0.0536,-0.0526,-0.0514,-0.0493,-0.0497,-0.0479,-0.0465,-0.0439,-0.0399,-0.035,-0.0311,-0.0255,-0.0223,-0.025,-0.0204,-0.0285,-0.0282,-0.0208,-0.0202,-0.0196,-0.0166,-0.0157,-0.0277,-0.0277,-0.0277,0,-0.0549,-0.0562,-0.0543,-0.0551,-0.0541,-0.0507,-0.0514,-0.0499,-0.0471,-0.045,-0.0435,-0.0363,-0.0301,-0.0253,-0.0264,-0.0256,-0.0242,-0.0247,-0.0212,-0.0205,-0.0198,-0.0168,-0.0157,-0.028,-0.0279,-0.0279,-0.0279,0,-0.0593,-0.06,-0.0611,-0.0596,-0.0586,-0.0594,-0.0558,-0.0547,-0.0517,-0.0487,-0.0451,-0.0382,-0.0321,-0.0323,-0.0287,-0.0241,-0.0261,-0.0236,-0.0178,-0.0195,-0.0165,-0.0153,-0.0284,-0.0283,-0.0282,-0.0281,0,0,-0.0641,-0.0642,-0.0643,-0.0642,-0.061,-0.061,-0.0584,-0.0549,-0.0525,-0.0493,-0.0453,-0.0386,-0.0354,-0.0317,-0.0291,-0.0227,-0.0163,-0.0223,-0.0218,-0.0175,-0.0052,-0.0021,-0.0004,-0.0151,-0.0149,-0.0147,-0.0065,0,-0.0676,-0.0707,-0.0686,-0.0695,-0.0702,-0.065,-0.0628,-0.0589,-0.0539,-0.0495,-0.0422,-0.0381,-0.0356,-0.0334,-0.0264,-0.0191,-0.0129,-0.019,-0.0058,-0.0054,-0.0005,0.0014,-0.0008,0.0067,-0.0053,-0.0051,-0.0049,0,-0.0714,-0.0729,-0.0756,-0.074,-0.0736,-0.0731,-0.0672,-0.065,-0.0565,-0.0527,-0.046,-0.041,-0.0317,-0.0292,-0.0146,-0.0205,-0.0124,-0.0067,-0.0062,0.0008,0.0004,0.0071,0.0095,-0.0028,-0.0029,-0.0031,-0.0032,0,-0.0755,-0.0769,-0.0793,-0.0789,-0.0768,-0.0762,-0.0738,-0.0664,-0.064,-0.0549,-0.0515,-0.0409,-0.0349,-0.0238,-0.0103,-0.013,0.0053,0.0048,0.0147,0.0148,0.0184,0.0185,0.0178,0.0178,0.0178,0.0178,0.0177,0,-0.0793,-0.0809,-0.0823,-0.0837,-0.0855,-0.0816,-0.0801,-0.0758,-0.0688,-0.0647,-0.0548,-0.0489,-0.0332,-0.0211,-0.0102,0.0064,0.0071,0.0167,0.0192,0.0157,0.0155,0.0124,0.0116,0.0181,0.018,0.0179,0.0179,0,-0.0832,-0.0839,-0.0875,-0.088,-0.0882,-0.0897,-0.0864,-0.0846,-0.0777,-0.0716,-0.0692,-0.0539,-0.0369,-0.0217,-0.001,0.0076,0.0229,0.0288,0.0214,0.0231,0.0259,0.0248,0.04,0.0402,0.0404,0.0406,0.0407,0,-0.0855,-0.0882,-0.0921,-0.095,-0.0961,-0.0967,-0.0965,-0.0903,-0.0873,-0.0739,-0.0715,-0.0537,-0.0387,-0.0096,0.0109,0.0313,0.0302,0.0392,0.0377,0.0284,0.0292,0.0278,0.0264,0.0375,0.0376,0.0377,0.0378,0,-0.0899,-0.092,-0.0957,-0.1019,-0.1046,-0.1053,-0.1043,-0.1028,-0.093,-0.0854,-0.0708,-0.0575,-0.028,-0.0024,0.0236,0.0343,0.0356,0.0415,0.0377,0.0324,0.0269,0.0274,0.026,0.0385,0.0384,0.0384,0.0383,0.0383,-0.0934,-0.0981,-0.1035,-0.1085,-0.1115,-0.1124,-0.1105,-0.1068,-0.0995,-0.0863,-0.0724,-0.0514,-0.0262,0.0122,0.0318,0.0476,0.0465,0.0483,0.0478,0.0472,0.0457,0.0409,0.0545,0.0545,0.0545,0.0545,0.0545,0,-0.0974,-0.1026,-0.1088,-0.1144,-0.117,-0.1169,-0.1138,-0.1089,-0.0988,-0.087,-0.0707,-0.0413,-0.0124,0.0118,0.0394,0.056,0.0528,0.0563,0.0494,0.0486,0.048,0.0462,0.0553,0.0554,0.0554,0.0555,0,0,-0.1001,-0.1073,-0.1105,-0.1165,-0.1193,-0.1182,-0.1148,-0.1074,-0.0971,-0.0819,-0.0669,-0.0469,-0.0135,0.0061,0.0285,0.0427,0.0398,0.0425,0.04,0.0284,0.0275,0.0419,0.0382,0,0,0,0,0]}],[{"header":{"parameterUnit":"m.s-1","parameterCategory":2,"la1":30.2991,"la2":30.254,"lo1":-89.0895,"lo2":-89.0444,"dy":0.0017,"dx":0.0017,"nx":28,"ny":28,"refTime":"2023-04-23T21:00:00:Z","depth":"4","parameterNumber":2,"parameterNumberName":"U-component_of_CURRENTS"},"data":[0,0,0,0,0,0,0,0,0,0,0,0,0,0,0,0,0,0,0,0,0,0,0,0,0,0,0,0,0,0,0,0,0,0,0,0,0,0,0,0,0,0,0,0,0,0,0,0,0,0,0,0,0,0,0,0,0,0,-0.1877,-0.1877,0,-0.1909,-0.1909,-0.1909,-0.1946,-0.1947,-0.1948,-0.1949,-0.1869,-0.1866,-0.1863,0,0,0,0,0,0,0,0,0,0,0,0,0,-0.1754,-0.1756,-0.1877,-0.1877,-0.1878,-0.1909,-0.1909,-0.1909,-0.1946,-0.1947,-0.1949,-0.195,-0.187,-0.1867,-0.1863,0,0,0,0,0,0,0,0,0,0,0,0,0,-0.1794,-0.1757,-0.1876,-0.1904,-0.1908,-0.1909,-0.1909,-0.1909,-0.1946,-0.1947,-0.1949,-0.195,-0.1872,-0.1867,-0.1863,-0.1803,0,0,-0.1848,-0.1846,0,0,0,0,0,0,0,0,-0.1792,-0.1798,-0.1899,-0.1902,-0.1906,-0.193,-0.1837,-0.187,-0.1945,-0.1926,-0.1949,-0.1951,-0.1881,-0.1876,-0.1873,-0.1799,-0.1796,-0.1848,-0.1845,-0.1843,-0.1842,0,0,0,0,0,0,0,-0.1789,-0.1796,-0.1884,-0.19,-0.1904,-0.1884,-0.1892,-0.1843,-0.1888,-0.1928,-0.1932,-0.1943,-0.1882,-0.1877,-0.1871,-0.1795,-0.1848,-0.1844,-0.1841,-0.1839,-0.1749,-0.175,0,0,0,0,0,0,-0.1799,-0.1794,-0.1883,-0.1886,-0.1858,-0.1886,-0.1894,-0.1916,-0.1891,-0.1892,-0.1942,-0.1945,-0.1885,-0.1877,-0.1868,-0.1839,-0.1843,-0.1839,-0.1836,-0.1749,-0.1749,-0.175,0,0,0,0,0,0,-0.1797,-0.1807,-0.1882,-0.1844,-0.1853,-0.1888,-0.1911,-0.1916,-0.1948,-0.1905,-0.1902,-0.1974,-0.1885,-0.1875,-0.1827,-0.1834,-0.1837,-0.1833,-0.1748,-0.1749,-0.1749,-0.1751,0,0,0,0,0,0,-0.1793,-0.1806,-0.1828,-0.1845,-0.1856,-0.1888,-0.1911,-0.1916,-0.1953,-0.1958,-0.193,-0.1922,-0.1886,-0.1834,-0.1823,-0.1828,-0.1829,-0.1748,-0.1749,-0.1749,-0.1751,-0.1752,-0.1753,0,0,0,0,0,-0.1789,-0.1814,-0.1829,-0.1841,-0.1885,-0.1888,-0.189,-0.1916,-0.1954,-0.1954,-0.1931,-0.1925,-0.1833,-0.1829,-0.1816,-0.182,-0.1748,-0.1748,-0.1749,-0.175,-0.1752,-0.1753,0,0,0,0,0,0,-0.177,-0.1821,-0.1838,-0.1878,-0.1885,-0.1897,-0.1916,-0.1935,-0.1922,-0.1939,-0.1903,-0.1891,-0.1861,-0.184,-0.1838,-0.1802,-0.18,-0.1798,-0.1805,-0.1806,-0.1807,-0.1821,-0.1825,0,0,0,0,0,-0.1777,-0.1813,-0.1839,-0.1867,-0.1884,-0.1906,-0.1919,-0.1935,-0.1929,-0.1931,-0.1902,-0.1881,-0.1848,-0.1828,-0.1792,-0.1752,-0.1748,-0.1758,-0.1759,-0.176,-0.1765,-0.1744,-0.1743,-0.1753,-0.1753,-0.1753,0,0,-0.1779,-0.1811,-0.1832,-0.1866,-0.1886,-0.189,-0.1918,-0.1947,-0.1939,-0.1917,-0.1896,-0.1877,-0.184,-0.1799,-0.1787,-0.1783,-0.1759,-0.1761,-0.1761,-0.1766,-0.1745,-0.1744,-0.1743,-0.1753,-0.1753,-0.1753,0,0,-0.1776,-0.1831,-0.185,-0.1863,-0.1898,-0.1902,-0.192,-0.1936,-0.194,-0.1906,-0.1903,-0.1878,-0.1826,-0.1794,-0.1774,-0.1759,-0.1767,-0.1777,-0.1783,-0.1762,-0.1761,-0.176,-0.1767,-0.1766,-0.1774,-0.1774,-0.1774,0,-0.1773,-0.1805,-0.1849,-0.1862,-0.1881,-0.1913,-0.1921,-0.1915,-0.1904,-0.19,-0.1901,-0.185,-0.1816,-0.1775,-0.1778,-0.1758,-0.177,-0.1776,-0.1762,-0.1761,-0.1759,-0.1767,-0.1766,-0.1775,-0.1775,-0.1775,-0.1775,0,-0.1765,-0.1802,-0.1819,-0.1848,-0.1863,-0.1881,-0.1889,-0.1893,-0.1907,-0.1895,-0.1871,-0.182,-0.1794,-0.1789,-0.1774,-0.1762,-0.1783,-0.1766,-0.1756,-0.1758,-0.1767,-0.1766,-0.1775,-0.1775,-0.1775,-0.1775,0,0,-0.1726,-0.1799,-0.1806,-0.1827,-0.1867,-0.1876,-0.1877,-0.1874,-0.1891,-0.1856,-0.1862,-0.1796,-0.1802,-0.1783,-0.177,-0.1756,-0.1754,-0.1772,-0.1771,-0.1775,-0.1746,-0.1628,-0.1616,-0.1746,-0.1746,-0.1746,-0.176,0,-0.1703,-0.1734,-0.1773,-0.1793,-0.1814,-0.1856,-0.1853,-0.186,-0.1865,-0.1868,-0.1834,-0.1821,-0.1789,-0.1797,-0.1771,-0.177,-0.1752,-0.1754,-0.1747,-0.1747,-0.1637,-0.1609,-0.1744,-0.1759,-0.1759,-0.1759,-0.1759,0,-0.1669,-0.1702,-0.173,-0.1792,-0.1807,-0.1818,-0.186,-0.1858,-0.1871,-0.188,-0.1867,-0.186,-0.1832,-0.1814,-0.1772,-0.1787,-0.1768,-0.1757,-0.1757,-0.1643,-0.1625,-0.1754,-0.1757,-0.1757,-0.1758,-0.1758,-0.1758,0,-0.1612,-0.1669,-0.1698,-0.1718,-0.1781,-0.1806,-0.1833,-0.1863,-0.187,-0.1899,-0.1917,-0.1885,-0.188,-0.1843,-0.1798,-0.1805,-0.177,-0.1763,-0.1632,-0.1626,-0.1731,-0.1732,-0.1724,-0.1724,-0.1724,-0.1723,-0.1723,0,-0.1563,-0.159,-0.1682,-0.1697,-0.1726,-0.1789,-0.1816,-0.1846,-0.1892,-0.1894,-0.1918,-0.19,-0.1891,-0.1863,-0.1823,-0.1713,-0.177,-0.1626,-0.1606,-0.1735,-0.1736,-0.1731,-0.1732,-0.1724,-0.1724,-0.1724,-0.1724,0,-0.1493,-0.1553,-0.1594,-0.1679,-0.1702,-0.1727,-0.1798,-0.1822,-0.1876,-0.189,-0.1902,-0.1922,-0.1871,-0.1846,-0.1801,-0.1722,-0.1648,-0.1595,-0.1756,-0.1748,-0.1526,-0.1527,-0.146,-0.1455,-0.1451,-0.1448,-0.1446,0,-0.1456,-0.1475,-0.157,-0.1596,-0.1638,-0.1685,-0.172,-0.1793,-0.1816,-0.1863,-0.1861,-0.1854,-0.1838,-0.1668,-0.167,-0.1582,-0.1546,-0.1528,-0.1499,-0.1503,-0.1493,-0.15,-0.1505,-0.144,-0.1439,-0.1438,-0.1437,0,-0.1389,-0.1442,-0.1481,-0.1524,-0.1574,-0.1605,-0.166,-0.1652,-0.1727,-0.1813,-0.1737,-0.1683,-0.1632,-0.1566,-0.1512,-0.1446,-0.1552,-0.1489,-0.1496,-0.1469,-0.1479,-0.1473,-0.1483,-0.1424,-0.1426,-0.1427,-0.1428,0,-0.1343,-0.1356,-0.1411,-0.143,-0.1493,-0.1487,-0.1525,-0.1531,-0.1545,-0.1613,-0.1581,-0.1564,-0.1606,-0.1494,-0.1437,-0.1368,-0.1339,-0.1297,-0.1314,-0.1329,-0.1273,-0.1266,-0.1116,0,0,0,0,0,-0.1285,-0.1279,-0.1304,-0.131,-0.1372,-0.1383,-0.1469,-0.1515,-0.1591,-0.1497,-0.1524,-0.1456,-0.1356,-0.1354,-0.1247,-0.1382,-0.1355,-0.1256,-0.1321,-0.1352,-0.1367,-0.1311,0,0,0,0,0,0,-0.124,-0.1268,-0.1262,-0.1201,-0.1178,-0.1211,-0.1251,-0.1311,-0.1255,-0.1341,-0.1282,-0.1363,-0.128,-0.1368,-0.1207,-0.121,-0.1221,-0.1268,-0.1264,-0.1344,-0.1358,-0.137,-0.1316,0,0,0,0,0]},{"header":{"parameterUnit":"m.s-1","parameterCategory":2,"la1":30.2991,"la2":30.254,"lo1":-89.0895,"lo2":-89.0444,"dy":0.0017,"dx":0.0017,"nx":28,"ny":28,"refTime":"2023-04-23T21:00:00:Z","depth":"4","parameterNumber":3,"parameterNumberName":"V-component_of_CURRENTS"},"data":[0,0,0,0,0,0,0,0,0,0,0,0,0,0,0,0,0,0,0,0,0,0,0,0,0,0,0,0,0,0,0,0,0,0,0,0,0,0,0,0,0,0,0,0,0,0,0,0,0,0,0,0,0,0,0,0,0,0,-0.0337,-0.0337,0,-0.0348,-0.0348,-0.0349,-0.0317,-0.0316,-0.0315,-0.0314,-0.0366,-0.0368,-0.0371,0,0,0,0,0,0,0,0,0,0,0,0,0,-0.0326,-0.0327,-0.0337,-0.0337,-0.0337,-0.0348,-0.0348,-0.0349,-0.0318,-0.0316,-0.0314,-0.0313,-0.0365,-0.0368,-0.0371,0,0,0,0,0,0,0,0,0,0,0,0,0,-0.0337,-0.0327,-0.0337,-0.032,-0.0318,-0.0348,-0.0348,-0.0349,-0.0318,-0.0316,-0.0314,-0.0312,-0.0364,-0.0368,-0.0372,-0.0434,0,0,-0.0384,-0.0385,0,0,0,0,0,0,0,0,-0.0336,-0.0337,-0.0323,-0.0321,-0.0319,-0.0326,-0.0364,-0.0378,-0.0318,-0.0322,-0.0314,-0.0311,-0.0356,-0.036,-0.0371,-0.0436,-0.0439,-0.0384,-0.0386,-0.0388,-0.0389,0,0,0,0,0,0,0,-0.0335,-0.0337,-0.0345,-0.0322,-0.032,-0.0324,-0.0324,-0.0367,-0.0353,-0.0321,-0.0318,-0.0315,-0.0355,-0.0367,-0.0372,-0.0439,-0.0384,-0.0387,-0.039,-0.0391,-0.0553,-0.0555,0,0,0,0,0,0,-0.0328,-0.0336,-0.0344,-0.0345,-0.0319,-0.0326,-0.0325,-0.0329,-0.0351,-0.0351,-0.0316,-0.0313,-0.0361,-0.0367,-0.0374,-0.0428,-0.0388,-0.0391,-0.0394,-0.0551,-0.0553,-0.0555,0,0,0,0,0,0,-0.0328,-0.0329,-0.0344,-0.0337,-0.0339,-0.0327,-0.0332,-0.033,-0.034,-0.0346,-0.0348,-0.0327,-0.036,-0.0368,-0.0429,-0.043,-0.0393,-0.0397,-0.0549,-0.0552,-0.0554,-0.0551,0,0,0,0,0,0,-0.0327,-0.0329,-0.0337,-0.0337,-0.0339,-0.0369,-0.0333,-0.0331,-0.0339,-0.0335,-0.0357,-0.0359,-0.0359,-0.0424,-0.0433,-0.0435,-0.04,-0.0546,-0.055,-0.0553,-0.0548,-0.0553,-0.0557,0,0,0,0,0,-0.0327,-0.035,-0.0338,-0.0339,-0.0349,-0.037,-0.0373,-0.0359,-0.0341,-0.0359,-0.038,-0.0358,-0.0452,-0.043,-0.044,-0.0443,-0.0544,-0.0549,-0.0553,-0.0546,-0.0552,-0.0557,0,0,0,0,0,0,-0.0356,-0.0349,-0.0335,-0.0355,-0.0362,-0.0363,-0.0378,-0.037,-0.04,-0.0399,-0.04,-0.0406,-0.0451,-0.0468,-0.0442,-0.0504,-0.0489,-0.0496,-0.0481,-0.0487,-0.0491,-0.0434,-0.0403,0,0,0,0,0,-0.0365,-0.0377,-0.0371,-0.039,-0.0391,-0.0387,-0.0395,-0.039,-0.0409,-0.0418,-0.0434,-0.0458,-0.0481,-0.05,-0.053,-0.0582,-0.0522,-0.0589,-0.0594,-0.0597,-0.0561,-0.0484,-0.0475,-0.057,-0.057,-0.057,0,0,-0.0381,-0.0379,-0.0385,-0.0396,-0.0398,-0.0407,-0.0389,-0.0409,-0.0417,-0.0424,-0.046,-0.048,-0.0502,-0.0544,-0.0565,-0.0556,-0.0545,-0.0603,-0.0605,-0.0566,-0.0487,-0.0477,-0.0468,-0.0573,-0.0572,-0.0572,0,0,-0.042,-0.0417,-0.0436,-0.0439,-0.0444,-0.0439,-0.0445,-0.0457,-0.0462,-0.0512,-0.0501,-0.0519,-0.0589,-0.0575,-0.0582,-0.0637,-0.0571,-0.0663,-0.0637,-0.0564,-0.0553,-0.0543,-0.0461,-0.0443,-0.0665,-0.0665,-0.0665,0,-0.0437,-0.0452,-0.0449,-0.0462,-0.0457,-0.0451,-0.0462,-0.0476,-0.0509,-0.0501,-0.0527,-0.0556,-0.0588,-0.0574,-0.0598,-0.0637,-0.0584,-0.0608,-0.0561,-0.055,-0.0539,-0.0458,-0.0438,-0.0665,-0.0665,-0.0665,-0.0665,0,-0.0479,-0.0488,-0.0502,-0.0502,-0.0505,-0.0521,-0.0517,-0.0527,-0.0535,-0.053,-0.0538,-0.0575,-0.0569,-0.0598,-0.0623,-0.057,-0.0552,-0.0569,-0.0529,-0.0528,-0.0445,-0.0424,-0.0666,-0.0665,-0.0665,-0.0665,0,0,-0.0513,-0.0527,-0.0529,-0.0524,-0.0521,-0.0526,-0.053,-0.0516,-0.0491,-0.0529,-0.0489,-0.0541,-0.0525,-0.0531,-0.0548,-0.0503,-0.041,-0.0511,-0.0507,-0.0395,-0.0229,-0.0284,-0.0267,-0.0413,-0.041,-0.0407,-0.0201,0,-0.0539,-0.0567,-0.0561,-0.0571,-0.0574,-0.0548,-0.0545,-0.0529,-0.0518,-0.0489,-0.0478,-0.0473,-0.051,-0.0509,-0.0463,-0.043,-0.0356,-0.0463,-0.0275,-0.0268,-0.0289,-0.0245,-0.0396,-0.0186,-0.0181,-0.0177,-0.0175,0,-0.0566,-0.0577,-0.0599,-0.0578,-0.0575,-0.0581,-0.0527,-0.0525,-0.0467,-0.0456,-0.0409,-0.0397,-0.034,-0.0382,-0.0248,-0.0315,-0.0258,-0.0224,-0.0216,-0.0242,-0.0285,-0.019,-0.0137,-0.014,-0.0143,-0.0145,-0.0148,0,-0.0574,-0.059,-0.0605,-0.0603,-0.0591,-0.0585,-0.0569,-0.0517,-0.0497,-0.0421,-0.0394,-0.0306,-0.0285,-0.0184,-0.0146,-0.0177,0.0009,-0.0021,0.0008,0.0006,-0.0004,-0.0017,0.0123,0.0123,0.0122,0.0122,0.0121,0,-0.0584,-0.0593,-0.0618,-0.0625,-0.0623,-0.0603,-0.0576,-0.0541,-0.0482,-0.0454,-0.0381,-0.0342,-0.0238,-0.0144,-0.008,0.0021,0.0075,0.0053,0.0065,-0.0015,-0.0031,0.0012,-0.0004,0.013,0.0128,0.0126,0.0125,0,-0.0587,-0.0605,-0.0624,-0.0633,-0.0634,-0.0634,-0.0604,-0.0584,-0.0522,-0.0475,-0.0454,-0.0345,-0.0228,-0.0114,0.0046,0.0082,0.0196,0.0223,0.0153,0.0151,0.0143,0.0124,0.0323,0.0323,0.0323,0.0323,0.0323,0,-0.0587,-0.0606,-0.0642,-0.0665,-0.0679,-0.0674,-0.0675,-0.0616,-0.0598,-0.0496,-0.0485,-0.035,-0.0279,-0.0058,0.0048,0.0239,0.0226,0.0312,0.022,0.0177,0.0169,0.015,0.0132,0.0323,0.0323,0.0323,0.0323,0,-0.0593,-0.0623,-0.0648,-0.0704,-0.073,-0.0731,-0.0731,-0.0712,-0.0649,-0.059,-0.0495,-0.0372,-0.0234,-0.0075,0.0069,0.0185,0.0271,0.0312,0.0312,0.0227,0.0179,0.0167,0.0149,0.0323,0.0323,0.0323,0.0323,0,-0.0608,-0.0639,-0.0699,-0.0735,-0.0777,-0.0801,-0.0776,-0.075,-0.0704,-0.0595,-0.0567,-0.04,-0.0289,-0.0101,0.0023,0.0142,0.016,0.0182,0.0189,0.0191,0.0055,-0.0032,0.0095,0,0,0,0,0,-0.062,-0.0671,-0.0723,-0.0776,-0.0821,-0.0836,-0.0829,-0.0798,-0.0733,-0.0678,-0.0615,-0.0488,-0.0277,-0.017,-0.0058,0.0002,0.0165,0.0134,0.0188,0.0323,0.0323,0.0176,0,0,0,0,0,0,-0.0639,-0.0704,-0.0734,-0.0807,-0.0845,-0.0885,-0.0881,-0.0835,-0.0783,-0.0701,-0.0581,-0.0484,-0.0273,-0.0347,-0.0064,-0.0024,0.002,0.025,0.0252,0.0322,0.0323,0.0323,0.0172,0,0,0,0,0]}]]